Back to catalog

BLOCK DM-SL R/B

AliveHEO
NORAD 28900·ROCKET BODY· XX

Launched Nov 8, 2005 from Sea Launch Platform

Loading…

Next Passes (next 24 hours)

TLE

FreshSource: Space-Track

Epoch: Sep 14, 2026, 08:51 UTC

1 28900U 05044B   26257.36919615  .00005505  00000-0  13954-2 0  9993
2 28900   2.9481  55.6321 6957562 149.1653 283.4815  2.69617142186965

Track BLOCK DM-SL R/B in real time with AllMySat

Download on the App Store